Regional Weather Roundup
Issued by NWS

Home | Current Version | Previous Version | Text Only | Print | Product List | Glossary On
Versions: 1 2 3 4 5 6 7 8 9 10 11 12 13 14 15 16 17 18 19 20 21 22 23 24 25 26 27 28 29 30 31 32 33 34 35 36 37 38 39 40 41 42 43 44 45 46 47 48 49 50
000
ASUS45 KBOU 292007
RWRCO

WEATHER ROUNDUP FOR COLORADO
NATIONAL WEATHER SERVICE DENVER/BOULDER CO
200 PM MDT MON MAY 29 2017

NOTE: "FAIR" INDICATES FEW OR NO CLOUDS BELOW 12000 FEET WITH NO
SIGNIFICANT WEATHER AND/OR OBSTRUCTIONS TO VISIBILITY.

COZ001>005-013-030-031-292100-
...NORTHWEST COLORADO...

CITY           SKY/WX    TMP DP  RH WIND       PRES   REMARKS
CRAIG          CLOUDY    67  32  27 NE5       30.23F
HAYDEN         FAIR      66  30  26 SW9       30.24F
MEEKER         PTSUNNY   69  31  24 N15       30.23F
RABBIT EARS PA MOCLDY    46  30  53 NW6       30.44S
STEAMBOAT SPGS CLOUDY    57  36  45 N18G25    30.27R
WALDEN           N/A     55  32  41 S8        30.36S
$$

COZ006>008-011-292100-
...WEST CENTRAL VALLEYS...

CITY           SKY/WX    TMP DP  RH WIND       PRES   REMARKS
GRAND JUNCTION FAIR      80  25  13 S5        30.11F
MONTROSE       FAIR      74  20  13 VRB6G18   30.18F
EAGLE          MOSUNNY   72  27  18 NE5       30.23F
RIFLE          FAIR      75  23  14 VRB3      30.15F
DELTA          FAIR      82  20  10 S13G18    30.13F
NUCLA          FAIR      75  19  12 NW3       30.20F
$$

COZ017>023-064>068-292100-
...SOUTHWEST COLORADO...

CITY           SKY/WX    TMP DP  RH WIND       PRES   REMARKS
DURANGO        FAIR      72  10   9 SW5       30.20F
CORTEZ         FAIR      77  17  10 SE12      30.16F
PAGOSA SPRINGS FAIR      70   8   9 W10       30.26F THUNDER
TELLURIDE      PTSUNNY   62  22  21 N3        30.36S
WOLF CREEK PAS FAIR      45  18  33 SW9G25    30.54S
$$

COZ009-010-012-014-032>034-037-058>063-292100-
...CENTRAL COLORADO...

CITY           SKY/WX    TMP DP  RH WIND       PRES   REMARKS
ASPEN          FAIR      64  18  17 N6        30.26F
BUENA VISTA    LGT RAIN  60  24  25 SE9G17    30.28R
COPPER MTN     CLOUDY    45  19  36 N5G21     30.49S
BERTHOUD PASS  PTSUNNY   34  27  75 NW13G20   30.51S WCI  25
COTTONWOOD PAS PTSUNNY   55  18  22 S5G16     30.37F
GUNNISON       FAIR      65  22  19 NE9       30.25F
KREMMLING      LGT RAIN  64  30  27 SW6       30.28F
LEADVILLE      CLOUDY    54  17  23 NW16      30.36S
MONARCH PASS   FAIR      48  12  23 W15       30.59S
SALIDA         FAIR      71  22  15 SW10      30.29F
SUNLIGHT       PTSUNNY   46  18  31 S3        30.48S
WILKERSON PASS CLOUDY    43  30  61 E9        30.47F
$$

COZ069>075-292100-
...SAN LUIS VALLEY/SANGRE DE CRISTO MOUNTAINS...

CITY           SKY/WX    TMP DP  RH WIND       PRES   REMARKS
ALAMOSA        FAIR      69  20  15 S5        30.23F
DEL NORTE      FAIR      65  26  23 E5        30.26F
LA VETA PASS   PTSUNNY   54  36  50 NE13G23   30.51F THUNDER
SAGUACHE       FAIR      68  23  18 SE9       30.25F
$$

COZ035-036-038>040-292100-
...NORTHERN COLORADO FRONT RANGE...

CITY           SKY/WX    TMP DP  RH WIND       PRES   REMARKS
DENVER INTL AP PTSUNNY   67  42  40 E8        30.21F
DMNS CITY PARK   N/A     65  38  36 NE9G22    30.20S
AURORA         PTSUNNY   68  42  39 E13       30.22F
FRONT RANGE AP PTSUNNY   66  45  45 E8        30.23F
ERIE MUNI ARPT LGT RAIN  65  40  39 NW5       30.22F
BOULDER MUN AP LGT RAIN  59  43  55 CALM      30.25R
CENTENNIAL     PTSUNNY   68  37  32 SE6       30.21F
BROOMFIELD     TSTM      64  41  42 N12       30.24S
FORT COLLINS   FAIR      66  40  38 W13G18    30.22F
LONGMONT       CLOUDY    63  41  44 SE9       30.25S
$$

COZ041-046-047-076>085-087-088-292100-
...PIKES PEAK/PALMER DIVIDE AND SOUTHERN FOOTHILLS...

CITY           SKY/WX    TMP DP  RH WIND       PRES   REMARKS
COLO. SPRINGS  PTSUNNY   62  38  40 S7        30.27S THUNDER
A. F. ACADEMY  LGT RAIN  55  42  63 SE21      30.25F
SCHRIEVER AFB  FAIR      63  36  36 SE8       30.26F
CHEYENNE MTN   LGT RAIN  56  39  53 CALM      30.24F
ELLICOTT       FAIR     N/A N/A N/A SE7G16    30.23F
FALCON         NOT AVBL
FORT CARSON    NOT AVBL
LIMON          FAIR      66  43  43 SE9       30.22F
MONUMENT HILL  TSTM      46  37  71 NW17G26   30.32R
CANON CITY     NOT AVBL
WALSENBURG     FAIR      70  45  40 E3        30.21F
TRINIDAD       FAIR      69  37  30 S6        30.20F
$$

COZ042>045-048>051-090-091-292100-
...NORTHEAST COLORADO...

CITY           SKY/WX    TMP DP  RH WIND       PRES   REMARKS
GREELEY ARPT   PTSUNNY   70  43  37 E6        30.21F
AKRON          FAIR      68  40  35 MISG      30.20F
BURLINGTON     FAIR      70  44  39 NE6       30.20F
WRAY           CLOUDY    72  36  26 N7        30.16F
YUMA           CLOUDY    70  27  19 CALM      30.17F
STERLING       NOT AVBL
HOLYOKE        NOT AVBL
FORT MORGAN    FAIR      73  37  26 N3        30.20F
$$

COZ086-089-092>099-292100-
...SOUTHEAST COLORADO...

CITY           SKY/WX    TMP DP  RH WIND       PRES   REMARKS
PUEBLO         FAIR      72  42  34 VRB6G16   30.16F
LA JUNTA       FAIR      74  44  34 E5        30.16F
LAMAR          FAIR      76  42  29 E8        30.14F
SPRINGFIELD      N/A     74  44  34 S8G17     30.16F
$$



USA.gov is the U.S. government's official web portal to all federal, state and local government web resources and services.